BATSU-CS1 (IRAZU) (43468 NORAD) Tracking and Keplerian Element Data
This shows tracking and keplerian element data for the satellite.
Feedback or suggestion? Click here.
Element | Value |
Catalog | 43468 |
Name | BATSU-CS1 (IRAZU) |
Epoch Orbit | 20397 |
Epoch Day | 64.05831928 |
Epoch Year | 2020 |
RAAN | 66.143 |
Inclination | 51.6208 |
Eccentricity | 0.000224 |
Argument of Perigee | 149.867 |
Mean Anonmoly | 210.2481 |
Mean Motion | 16.30203714 |
Decay Rate | 0.04860327 |
L1 | 1 43468U 98067NR 20064.05831928 .04860327 12102-4 10158-2 0 9990 |
L2 | 2 43468 51.6208 66.1430 0002240 149.8670 210.2481 16.30203714203978 |
Live tracking and technical data element details for BATSU-CS1 (IRAZU) (NORAD 43468). BATSU-CS1 (IRAZU) can be tracked NOW for your location showing map with azimuth and elevation plus other details from your city location.
Track the satellite on the map from your city or location and see movement details for azimuth, elevation, latitude, longitude, range, height, and movement on the map or in text.
IsCatalogInMostPopularTable: catalog: 43468, numindb: 825
Update: records affected: 1
GetName: 43468 BATSU-CS1 (IRAZU)
Hit Count: updated at: Sat, 27 Feb 2021 12:44:35 GMT